San Antonio Stinson, TX

9:19 AM CDT on July 28, 2017 (GMT -0500)
Stinson Municipal

Weather History for KSSF - November, 2014

Change the Weather History Date:

Sunday, November 2, 2014

  Actual Average Record
Temperature  
Mean Temperature 64 °F -  
Max Temperature 79 °F 73 °F 90 °F (2016)
Min Temperature 52 °F 54 °F 39 °F (2005)
Growing Degree Days 14 (Base 50)    
Moisture  
Dew Point 51 °F    
Average Humidity 65    
Maximum Humidity 89    
Minimum Humidity 38    
Precipitation  
Precipitation 0.00 in - - ()
Sea Level Pressure  
Sea Level Pressure 30.21 in    
Wind  
Wind Speed 9 mph (ESE)    
Max Wind Speed 16 mph    
Max Gust Speed 29 mph    
Visibility 10 miles    
Events      
Averages and records for this station are not official NWS values.
T = Trace of Precipitation, MM = Missing Value Source: NWS Daily Summary

Daily Weather History Graph

Daily Weather History Graph

Search for Another Location

Airport or City:

Trip Planner

Search our weather history database for the weather conditions in past years. The results will help you decide how hot, cold, wet, or windy it might be!

Date:

Astronomy

Nov. 02, 2014 Rise Set
Actual Time 6:47 AM CST 5:46 PM CST
Civil Twilight 6:23 AM CST 6:11 PM CST
Nautical Twilight 5:54 AM CST 6:39 PM CST
Astronomical Twilight 5:27 AM CST 7:07 PM CST
Moon 2:59 PM CST (11/2) 2:14 AM CST (11/2)
Length of Visible Light 11h 48m
Length of Day
10h 59m
Waxing Gibbous, 79% of the Moon is Illuminated
Nov 2
Waxing Gibbous
Nov 6
Full
Nov 14
Last Quarter
Nov 22
New
Nov 29
First Quarter

Hourly Weather History & Observations

Time (CST) Temp. Dew Point Humidity Pressure Visibility Wind Dir Wind Speed Gust Speed Precip Events Conditions
12:53 AM 57.0 °F 52.0 °F 83% 30.26 in 10.0 mi ESE 10.4 mph - N/A   Clear
1:53 AM 55.9 °F 51.1 °F 84% 30.25 in 10.0 mi ESE 8.1 mph - N/A   Clear
1:53 AM 55.0 °F 50.0 °F 83% 30.23 in 10.0 mi ESE 6.9 mph - N/A   Clear
2:53 AM 54.0 °F 50.0 °F 86% 30.22 in 10.0 mi ESE 5.8 mph - N/A   Clear
3:53 AM 54.0 °F 50.0 °F 86% 30.23 in 10.0 mi East 4.6 mph - N/A   Clear
4:53 AM 54.0 °F 48.9 °F 83% 30.23 in 10.0 mi East 5.8 mph - N/A   Clear
5:53 AM 52.0 °F 48.9 °F 89% 30.25 in 10.0 mi NE 4.6 mph - N/A   Clear
6:53 AM 52.0 °F 48.0 °F 86% 30.26 in 10.0 mi NNE 3.5 mph - N/A   Clear
7:53 AM 54.0 °F 48.9 °F 83% 30.27 in 10.0 mi NE 4.6 mph - N/A   Clear
8:53 AM 60.1 °F 51.1 °F 72% 30.28 in 10.0 mi Variable 4.6 mph - N/A   Clear
9:53 AM 66.0 °F 52.0 °F 60% 30.28 in 10.0 mi ESE 11.5 mph - N/A   Clear
10:53 AM 70.0 °F 52.0 °F 53% 30.26 in 10.0 mi SE 13.8 mph 27.6 mph N/A   Clear
11:53 AM 73.9 °F 54.0 °F 50% 30.22 in 10.0 mi SE 13.8 mph - N/A   Clear
12:53 PM 75.9 °F 52.0 °F 43% 30.18 in 10.0 mi SE 11.5 mph - N/A   Scattered Clouds
1:53 PM 77.0 °F 51.1 °F 40% 30.15 in 10.0 mi SSE 13.8 mph 28.8 mph N/A   Mostly Cloudy
2:53 PM 75.9 °F 48.9 °F 38% 30.14 in 10.0 mi SE 16.1 mph 21.9 mph N/A   Overcast
3:53 PM 75.0 °F 50.0 °F 41% 30.14 in 10.0 mi SE 13.8 mph 20.7 mph N/A   Overcast
4:53 PM 73.9 °F 52.0 °F 46% 30.14 in 10.0 mi SE 16.1 mph 20.7 mph N/A   Overcast
5:53 PM 72.0 °F 52.0 °F 49% 30.14 in 10.0 mi SE 15.0 mph - N/A   Overcast
6:53 PM 71.1 °F 53.1 °F 53% 30.16 in 10.0 mi SE 11.5 mph - N/A   Overcast
7:53 PM 70.0 °F 54.0 °F 57% 30.17 in 10.0 mi SE 12.7 mph 21.9 mph N/A   Overcast
8:53 PM 69.1 °F 55.0 °F 61% 30.17 in 10.0 mi ESE 13.8 mph 18.4 mph N/A   Overcast
9:53 PM 68.0 °F 55.0 °F 63% 30.17 in 10.0 mi SE 10.4 mph - N/A   Overcast
10:53 PM 66.0 °F 55.0 °F 68% 30.15 in 10.0 mi ESE 8.1 mph - N/A   Overcast